Weather History for Tanana, AK

Change the Weather History Date:

Wednesday, February 8, 2012

  Actual Average Record
Temperature  
Mean Temperature 14 °F -  
Max Temperature 17 °F 4 °F 33 °F (1982)
Min Temperature 12 °F -11 °F -59 °F (1999)
Degree Days  
Heating Degree Days 50    
Moisture  
Dew Point 7 °F    
Average Humidity 70    
Maximum Humidity 74    
Minimum Humidity 67    
Precipitation  
Precipitation 0.00 in - - ()
Snow  
Snow 0.00 in - - ()
Snow Depth 22.00 in    
Sea Level Pressure  
Sea Level Pressure 29.69 in    
Wind  
Wind Speed 8 mph (ENE)    
Max Wind Speed 15 mph    
Max Gust Speed 20 mph    
Visibility 10 miles    
Events      
Averages and records for this station are not official NWS values.
T = Trace of Precipitation, MM = Missing Value Source: NWS Daily Summary

Daily Weather History Graph

Daily Weather History Graph

Search for Another Location

Airport:

Trip Planner

Search our weather history database for the weather conditions in past years. The results will help you decide how hot, cold, wet, or windy it might be!

Date:

Astronomy

Feb. 08, 2012 Rise Set
Actual Time 9:34 AM AKST 5:12 PM AKST
Civil Twilight 8:37 AM AKST 6:08 PM AKST
Nautical Twilight 7:38 AM AKST 7:08 PM AKST
Astronomical Twilight 6:40 AM AKST 8:05 PM AKST
Moon 7:43 PM AKST (2/8) 8:55 AM AKST (2/8)
Length of Visible Light 9h 30m
Length of Day
7h 37m
Full, 99% of the Moon is Illuminated
Feb 8
Full
Feb 14
Last Quarter
Feb 21
New
Feb 29
First Quarter
Mar 8
Full

Hourly Weather History & Observations

Time (AKST) Temp. Windchill Dew Point Humidity Pressure Visibility Wind Dir Wind Speed Gust Speed Precip Events Conditions
12:52 AM 14.0 °F 3.9 °F 6.1 °F 71% 29.85 in 10.0 mi NE 6.9 mph - N/A   Clear
1:52 AM 15.1 °F 4.2 °F 6.1 °F 68% 29.84 in 10.0 mi East 8.1 mph 17.3 mph N/A   Clear
2:52 AM 15.1 °F 6.4 °F 6.1 °F 68% 29.83 in 10.0 mi East 5.8 mph 16.1 mph N/A   Clear
3:52 AM 12.9 °F 6.9 °F 5.0 °F 71% 29.83 in 10.0 mi Variable 3.5 mph - N/A   Clear
4:52 AM 12.9 °F 0.7 °F 6.1 °F 74% 29.81 in 10.0 mi East 9.2 mph - N/A   Clear
5:52 AM 15.1 °F 3.3 °F 6.1 °F 68% 29.80 in 10.0 mi ENE 9.2 mph - N/A   Clear
6:52 AM 12.9 °F -0.2 °F 5.0 °F 71% 29.77 in 10.0 mi North 10.4 mph - N/A   Clear
7:52 AM 16.0 °F 6.3 °F 7.0 °F 68% 29.76 in 10.0 mi Variable 6.9 mph 19.6 mph N/A   Clear
8:52 AM 14.0 °F 2.0 °F 6.1 °F 71% 29.75 in 10.0 mi NNW 9.2 mph - N/A   Clear
9:52 AM 14.0 °F 2.9 °F 7.0 °F 74% 29.73 in 10.0 mi NNW 8.1 mph - N/A   Clear
10:52 AM 17.1 °F 4.3 °F 8.1 °F 68% 29.71 in 10.0 mi NE 11.5 mph 18.4 mph N/A   Partly Cloudy
11:52 AM 16.0 °F 6.3 °F 7.0 °F 68% 29.68 in 10.0 mi NNE 6.9 mph - N/A   Partly Cloudy
12:52 PM 17.1 °F 5.8 °F 8.1 °F 68% 29.66 in 10.0 mi ESE 9.2 mph - N/A   Partly Cloudy
1:52 PM 17.1 °F 5.8 °F 8.1 °F 68% 29.65 in 10.0 mi ESE 9.2 mph - N/A   Clear
2:52 PM 16.0 °F 1.1 °F 8.1 °F 71% 29.63 in 10.0 mi ESE 15.0 mph - N/A   Clear
3:52 PM 16.0 °F 1.1 °F 7.0 °F 68% 29.62 in 10.0 mi East 15.0 mph - N/A   Partly Cloudy
4:52 PM 14.0 °F 2.0 °F 6.1 °F 71% 29.61 in 10.0 mi ENE 9.2 mph - N/A   Partly Cloudy
5:52 PM 14.0 °F 2.9 °F 6.1 °F 71% 29.59 in 10.0 mi ENE 8.1 mph - N/A   Partly Cloudy
6:52 PM 14.0 °F 1.2 °F 5.0 °F 67% 29.60 in 10.0 mi East 10.4 mph - N/A   Partly Cloudy
7:52 PM 14.0 °F 3.9 °F 6.1 °F 71% 29.60 in 10.0 mi ENE 6.9 mph - N/A   Partly Cloudy
8:52 PM 14.0 °F 6.5 °F 6.1 °F 71% 29.57 in 10.0 mi Variable 4.6 mph - N/A   Partly Cloudy
9:52 PM 15.1 °F 1.8 °F 6.1 °F 68% 29.58 in 10.0 mi ENE 11.5 mph 16.1 mph N/A   Clear
10:52 PM 16.0 °F 5.3 °F 8.1 °F 71% 29.57 in 10.0 mi ENE 8.1 mph - N/A   Clear
11:52 PM 17.1 °F 4.3 °F 10.0 °F 74% 29.58 in 10.0 mi ENE 11.5 mph - N/A   Clear